Location: ICStars Ranch
(38.8297°N, 93.7687°W)
Time: 11:36:40
(UTC-05:00)

Daily predictions for brighter satellites

Satellite Brightness Start Highest point End
(mag) Time Altitude Azimuth Time Altitude Azimuth Time Altitude Azimuth
Cosmos 2278 Rocket 2.9 20:17:13 10° N 20:22:30 38° ENE 20:27:45 10° SE
Cosmos 1515 Rocket 4.3 20:24:07 10° SSE 20:28:06 33° E 20:32:06 10° NNE
ASTRO E2 4.1 20:30:30 10° SW 20:33:41 23° S 20:36:53 10° ESE
Cosmos 1825 3.5 20:33:31 10° NNE 20:36:34 23° ENE 20:39:36 10° SE
Envisat 3.0 20:34:23 10° SSE 20:39:27 84° ENE 20:44:33 10° N
Nadezhda 3 Rocket 4.1 20:34:08 10° N 20:40:29 88° E 20:46:52 10° S
Cosmos 1328 Rocket 3.5 20:38:44 10° S 20:43:07 75° E 20:47:34 10° N
CZ-4C R/B 3.7 20:44:58 11° ESE 20:45:37 11° ESE 20:47:11 10° E
H-2A R/B 4.0 20:44:35 10° ENE 20:45:53 11° ENE 20:47:10 10° NE
Cosmos 2228 Rocket 3.1 20:44:22 10° S 20:48:38 56° E 20:52:58 10° NNE
BREEZE-M DEB (TANK) 4.5 20:46:31 10° W 20:51:02 68° NNW 21:09:44 10° ENE
Meteor 2-10 Rocket 4.4 20:47:52 10° SSE 20:52:56 33° E 20:58:05 10° NNE
Cosmos 2056 Rocket 3.9 20:50:44 10° S 20:55:49 44° ESE 21:00:55 10° NNE
Cosmos 1408 2.8 20:55:27 10° N 20:59:03 50° E 21:02:18 12° SSE
Cosmos 1470 Rocket 3.5 20:57:26 10° N 21:01:52 76° E 21:06:19 10° SSE
SL-16 R/B 2.6 20:58:08 10° S 21:03:21 40° ESE 21:08:36 10° NE
ATLAS 2AS CENTAUR R/B 3.2 21:03:33 10° NW 21:11:18 66° WSW 21:18:21 10° SSE
Cosmos 1624 Rocket 3.9 21:07:02 10° S 21:12:10 66° ESE 21:17:19 10° NNE
Cosmos 1190 Rocket 4.5 21:09:51 10° N 21:14:54 44° ENE 21:17:55 22° SE
ERS-2 3.2 21:11:58 10° S 21:15:28 44° W 21:19:00 10° NNW
YAOGAN 6 3.0 21:12:05 10° S 21:15:38 61° W 21:19:17 10° NNW
Cosmos 2098 Rocket 3.0 21:11:34 10° S 21:16:02 52° E 21:19:36 10° NNE
SAR-Lupe-3 4.4 21:13:28 10° NNE 21:17:03 78° ESE 21:20:37 10° S
Resurs 01 Rocket 1.6 21:12:46 10° SSE 21:17:12 85° WSW 21:21:40 10° NNW
Cosmos 2344 4.0 21:11:14 10° S 21:18:10 38° ESE 21:25:20 10° NE
Cosmos 1151 Rocket 3.4 21:14:38 10° SSW 21:18:51 65° W 21:23:06 10° N
Cosmos 405 3.7 21:15:45 10° N 21:18:57 33° ENE 21:19:45 29° ESE
SJ-11-01 4.2 21:15:33 12° SSE 21:19:55 86° ENE 21:24:37 10° NNW
Cosmos 1959 Rocket 4.4 21:14:58 10° S 21:21:07 77° E 21:27:14 10° N
Spot 2 Rocket 3.4 21:17:24 13° SSE 21:21:56 79° ENE 21:27:02 10° N
Cosmos 1727 Rocket 4.1 21:23:35 10° N 21:29:40 57° E 21:33:38 22° SSE
Cosmos 1933 Rocket 4.0 21:25:48 10° NNW 21:30:08 62° W 21:34:21 10° S
Cosmos 1869 3.7 21:33:24 10° SSW 21:37:22 63° W 21:41:22 10° N
BREEZE-M DEB (TANK) 1.9 21:34:05 10° WNW 21:37:24 67° SW 21:37:32 65° SSW
Cosmos 1441 Rocket 3.2 21:37:10 43° SE 21:38:01 54° E 21:41:42 10° NNE
Cosmos 2297 3.8 21:33:03 10° NNW 21:38:42 62° ENE 21:41:21 31° SE
Cosmos 2369 Rocket 4.1 21:35:51 10° NNE 21:38:47 14° NE 21:40:37 12° ENE
NOSS 3-4 (A) 3.9 21:35:00 10° NNW 21:42:05 72° NE 21:46:16 29° SE
NOSS 3-4 (C) 3.9 21:35:05 10° NNW 21:42:11 71° NE 21:46:21 29° SE
Cosmos 1707 Rocket 3.9 21:42:05 40° ESE 21:42:34 42° E 21:46:40 10° NNE
Cosmos 1933 4.2 21:45:41 32° ENE 21:45:41 32° ENE 21:48:48 10° NNE
Cosmos 2218 Rocket 4.4 21:39:58 10° SSW 21:46:17 67° W 21:52:41 10° N
ERS-1 Rocket 3.5 21:49:53 36° E 21:50:54 40° ENE 21:55:35 10° N
Cosmos 1869 Rocket 3.4 21:48:54 10° N 21:53:15 68° E 21:54:05 53° SE
Cosmos 2366 rocket 4.4 21:47:14 10° SSW 21:53:24 65° W 21:59:40 10° N
SL-08 RB Rocket 4.0 21:53:52 44° E 21:54:23 47° ENE 21:58:40 10° N
Cosmos 2237 Rocket 4.2 21:50:03 10° WSW 21:54:57 30° WNW 21:59:52 10° N
BREEZE-M DEB (TANK) 3.2 21:53:05 10° NW 21:55:03 36° NNW 21:55:03 36° NNW
ATLAS 5 CENTAUR R/B 4.1 21:52:01 10° N 21:56:17 20° NE 21:58:49 16° ENE
Cosmos 1420 Rocket 4.2 21:55:12 42° SE 21:56:18 49° ESE 22:01:25 10° NNE
Cosmos 407 Rocket 3.6 21:57:23 10° NNW 22:02:29 70° WSW 22:04:28 37° S
CSL-04 DEB 4.5 22:05:27 59° S 22:06:15 87° WSW 22:10:40 10° NNW
Cosmos 2278 Rocket 3.9 22:01:36 10° NW 22:06:23 28° WSW 22:10:54 11° SSW
Cosmos 405 Rocket 3.2 22:10:35 42° SW 22:11:35 58° W 22:15:30 10° N
Lacrosse 5 3.5 22:09:19 10° NNW 22:13:21 23° NNE 22:14:48 20° NE
SPOT 5 3.5 22:14:46 37° NE 22:14:46 37° NE 22:18:22 10° N
OAO 3 Copernicus 4.4 22:11:54 10° WSW 22:16:33 55° SSW 22:16:33 55° SSW
SPOT 1/Viking Rocket 4.1 22:16:47 42° ENE 22:16:54 42° ENE 22:21:47 10° N
ATLAS 2A CENTAUR R/B 4.0 22:01:24 10° WSW 22:19:28 44° S 22:22:31 37° SSE
USA 81 4.5 22:15:40 10° NNW 22:20:51 59° W 22:22:59 34° SSW
Meteor 1-26 Rocket 4.4 22:21:15 51° E 22:21:15 51° E 22:26:22 10° NNE
DMSP B5D2-2 4.2 22:18:38 10° NNE 22:23:26 56° E 22:23:26 56° E
Cosmos 1023 Rocket 4.3 22:19:25 10° NNW 22:24:34 85° WSW 22:25:05 73° S
H-2A R/B 1.9 22:23:56 68° S 22:24:35 85° WSW 22:29:35 10° NNW
Cosmos 1437 Rocket 4.2 22:21:42 10° N 22:24:00 30° NNE 22:24:00 30° NNE
Cosmos 676 Rocket 4.1 22:21:15 10° NNW 22:26:27 70° WSW 22:27:16 59° SSW
MetOp-B 4.3 22:29:17 52° SSW 22:30:27 68° WSW 22:35:48 10° NNW
Cosmos 1862 4.5 22:28:41 10° NNW 22:32:26 38° W 22:32:40 37° WSW
CZ-4C R/B 2.1 22:29:39 22° SW 22:32:59 81° WNW 22:38:50 10° NNE
ARGOS 3.6 22:33:06 42° SSW 22:34:31 54° W 22:39:47 10° NNW
Cosmos 1452 Rocket 4.1 22:35:18 23° SW 22:38:23 56° WNW 22:43:33 10° N
Cosmos 1943 Rocket 3.4 22:35:33 10° N 22:40:03 29° NE 22:40:03 29° NE
Cosmos 1934 Rocket 3.7 22:41:09 73° ESE 22:41:25 74° E 22:47:28 10° N
Helios 1B rocket 4.0 22:39:10 10° NNE 22:41:17 29° NNE 22:41:17 29° NNE
RESURS DK-1 4.3 22:39:54 10° N 22:41:59 22° NNE 22:41:59 22° NNE
SL-16 R/B 4.1 22:42:45 10° WSW 22:47:33 28° WNW 22:52:23 10° N
Cosmos 1140 Rocket 4.0 22:43:15 10° NNW 22:48:14 51° WSW 22:48:26 51° WSW
Cosmos 1850 Rocket 4.3 22:52:32 10° NNW 22:56:54 63° N 22:56:54 63° N
Cosmos 1741 Rocket 4.4 23:02:07 10° NNW 23:06:31 61° NNW 23:06:31 61° NNW
Cosmos 1603 4.4 23:13:40 44° W 23:14:42 49° WNW 23:20:10 10° NNE
Cosmos 1943 3.8 23:16:42 49° NNE 23:16:42 49° NNE 23:20:49 10° NNE
Terra 3.0 23:18:59 39° N 23:18:59 39° N 23:22:00 10° NNW
Cosmos 2369 Rocket 2.7 23:17:54 10° NNW 23:22:25 57° NNW 23:22:25 57° NNW
CZ-2C R/B 4.1 23:22:36 10° NNE 23:25:12 28° NE 23:25:12 28° NE
Cosmos 2123 Rocket 4.5 23:27:37 10° NNW 23:33:32 53° W 23:33:32 53° W
USA 267 3.2 23:27:13 10° NE 23:33:30 78° N 23:33:30 78° N
ATLAS 5 CENTAUR R/B 2.8 23:35:35 10° NNW 23:40:22 59° NNW 23:40:22 59° NNW
